Regional Weather Roundup
Issued by NWS

Home | Current Version | Previous Version | Graphics & Text | Print | Product List | Glossary On
Versions: 1 2 3 4 5 6 7 8 9 10 11 12 13 14 15 16 17 18 19 20 21 22 23 24 25 26 27 28 29 30 31 32 33 34 35 36 37 38 39 40 41 42 43 44 45 46 47 48 49 50
000
ASUS43 KTOP 070559
RWRKS

WEATHER ROUNDUP FOR KANSAS
NATIONAL WEATHER SERVICE GOODLAND KS
100 AM CDT THU MAY 07 2015

NOTE:  "FAIR" INDICATES FEW OR NO CLOUDS BELOW 12,000 FEET WITH NO
SIGNIFICANT WEATHER AND/OR OBSTRUCTIONS TO VISIBILITY.

KSZ001>006-013>018-027>032-041>047-070700-
NORTHWEST KANSAS

CITY           SKY/WX    TMP DP  RH WIND       PRES   REMARKS
GOODLAND       CLOUDY    57  51  80 W9        29.73R
6HR MIN TEMP:  57; 6HR MAX TEMP:  68; 6HR PCP: TRACE;

HAYS           MOCLDY    64  55  72 S22G31    29.68S
HILL CITY      LGT RAIN  62  59  90 NW3       29.66S
6HR MIN TEMP:  58; 6HR MAX TEMP:  73; 6HR PCP:  0.32;

RUSSELL        MOCLDY    66  60  81 S26G37    29.68R
6HR MIN TEMP:  65; 6HR MAX TEMP:  76;

$$

KSZ061>065-074>080-084>089-070700-
SOUTHWEST KANSAS

CITY           SKY/WX    TMP DP  RH WIND       PRES   REMARKS
DODGE CITY     MOCLDY    61  52  72 SE12      29.75R
6HR MIN TEMP:  61; 6HR MAX TEMP:  79;

ELKHART          N/A    N/A N/A N/A MISG        N/A
GARDEN CITY    CLEAR     55  49  80 SE9       29.70R
6HR MIN TEMP:  55; 6HR MAX TEMP:  71;

GREAT BEND     MOCLDY    64  55  72 S26G38    29.70R
LIBERAL        PTCLDY    61  46  59 CALM      29.76F
$$

KSZ066>073-081>083-090>101-070700-
SOUTHEAST KANSAS

CITY           SKY/WX    TMP DP  RH WIND       PRES   REMARKS
CHANUTE        CLOUDY    69  57  65 S8        29.92R
6HR MIN TEMP:  69; 6HR MAX TEMP:  74;

COFFEYVILLE    CLOUDY    71  59  65 S10       29.88R
6HR MIN TEMP:  70; 6HR MAX TEMP:  74;

HUTCHINSON     CLOUDY    67  60  78 S22G32    29.75F
6HR MIN TEMP:  65; 6HR MAX TEMP:  73; 6HR PCP:  0.03;

MEDICINE LODGE   N/A     63  57  81 S12G21    29.79R
NEWTON         CLOUDY    66  59  77 S24G31    29.79F
PARSONS        CLOUDY    70  59  68 W7        29.92R
6HR MIN TEMP:  70; 6HR MAX TEMP:  74;

WICHITA INTL   CLOUDY    68  64  87 S15       29.79F
6HR MIN TEMP:  66; 6HR MAX TEMP:  73; 6HR PCP:  0.27;

WICHITA JABRA  CLOUDY    66  62  87 S18G26    29.79F
6HR MIN TEMP:  66; 6HR MAX TEMP:  72; 6HR PCP:  0.24;

WINFIELD       TSTM      68  60  75 S22G36    29.87R
6HR MIN TEMP:  68; 6HR MAX TEMP:  74; 6HR PCP:  0.24;

$$

KSZ007>012-019>026-033>040-048>060-102>105-070700-
NORTHEAST KANSAS

CITY           SKY/WX    TMP DP  RH WIND       PRES   REMARKS
CONCORDIA      MOCLDY    67  59  75 S23G32    29.66R
6HR MIN TEMP:  63; 6HR MAX TEMP:  70; 6HR PCP:  0.07;

EMPORIA        CLOUDY    66  60  81 S23G35    29.78F
6HR MIN TEMP:  66; 6HR MAX TEMP:  72; 6HR PCP: TRACE;

LAWRENCE       CLOUDY    69  56  62 SE18      29.83S
6HR MIN TEMP:  69; 6HR MAX TEMP:  73;

MANHATTAN      CLOUDY    70  60  70 S17G28    29.72F
6HR MIN TEMP:  69; 6HR MAX TEMP:  73;

OLATHE IND     MOCLDY    68  57  68 SE16G24   29.88R
6HR MIN TEMP:  68; 6HR MAX TEMP:  74;

OLATHE EXE     MOCLDY    67  57  70 S17G23    29.88R
6HR MIN TEMP:  67; 6HR MAX TEMP:  74;

SALINA         CLOUDY    70  62  76 S26G41    29.70R
6HR MIN TEMP:  69; 6HR MAX TEMP:  71; 6HR PCP:  0.02;

TOPEKA BILLARD MOCLDY    69  57  65 S21G29    29.80F
6HR MIN TEMP:  69; 6HR MAX TEMP:  73;

TOPEKA FORBES  CLOUDY    70  57  63 S20G30    29.80F
6HR MIN TEMP:  70; 6HR MAX TEMP:  74;

$$


USA.gov is the U.S. government's official web portal to all federal, state and local government web resources and services.